Location: Voyageurs National Park
(48.5020°N, 92.9292°W)
Time: 20:09:36
(UTC-05:00)

PCSat - Visible Passes

Search period start: 31 March 2015 00:00
Search period end: 10 April 2015 00:00
Orbit: 786 x 795 km, 67.1° (Epoch: 30 March)

Date Brightness Start Highest point End Pass type
(mag) Time Alt. Az. Time Alt. Az. Time Alt. Az.
31 Mar 11.3 21:40:56 10° NNW 21:44:54 20° NNE 21:47:10 16° ENE visible
31 Mar 10.3 23:23:51 10° NNW 23:27:53 49° NNW 23:27:53 49° NNW visible
01 Apr 12.2 01:08:13 10° WNW 01:08:37 11° WNW 01:08:37 11° WNW visible
01 Apr 11.5 21:10:21 10° NNW 21:13:54 18° NNE 21:17:19 11° ENE visible
01 Apr 10.0 22:53:10 10° NNW 22:58:03 55° NNE 22:58:03 55° NNE visible
02 Apr 11.8 00:37:07 10° NW 00:38:46 18° WNW 00:38:46 18° WNW visible
02 Apr 11.7 20:39:45 10° NNW 20:42:53 15° NNE 20:46:05 10° ENE visible
02 Apr 10.1 22:22:31 10° NNW 22:27:45 45° NE 22:28:14 44° ENE visible
03 Apr 11.3 00:06:09 10° NW 00:08:57 26° WNW 00:08:57 26° WNW visible
03 Apr 10.5 21:51:54 10° NNW 21:56:54 36° NE 21:58:26 31° ENE visible
03 Apr 10.6 23:35:17 10° NW 23:39:10 39° WNW 23:39:10 39° WNW visible
04 Apr 10.8 21:21:17 10° NNW 21:26:01 30° NE 21:28:40 20° E visible
04 Apr 9.9 23:04:29 10° NW 23:09:24 61° W 23:09:24 61° W visible
05 Apr 11.0 20:50:40 10° NNW 20:55:05 25° NE 20:58:55 13° E visible
05 Apr 9.4 22:33:44 10° NW 22:39:11 83° WSW 22:39:39 74° S visible
06 Apr 12.0 00:18:58 10° WNW 00:20:23 13° W 00:20:23 13° W visible
06 Apr 11.2 20:20:04 10° NNW 20:24:08 21° NNE 20:28:15 10° E visible
06 Apr 9.5 22:03:00 10° NNW 22:08:29 77° NE 22:09:58 49° SE visible
06 Apr 11.5 23:47:30 10° WNW 23:50:42 19° W 23:50:42 19° W visible
07 Apr 9.7 21:32:19 10° NNW 21:37:43 60° NE 21:40:17 30° ESE visible
07 Apr 11.1 23:16:21 10° NW 23:20:49 26° WSW 23:21:02 26° WSW visible
08 Apr 10.0 21:01:39 10° NNW 21:06:55 47° NE 21:10:40 19° ESE visible
08 Apr 10.7 22:45:21 10° NW 22:50:14 34° WSW 22:51:24 31° SW visible
09 Apr 10.4 20:31:01 10° NNW 20:36:05 38° NE 20:41:05 10° ESE visible
09 Apr 10.3 22:14:27 10° NW 22:19:38 45° WSW 22:21:50 29° SSW visible
